COMPASS
1 32787U 08021E 13023.84602817 .00001205 00000-0 14749-3 0 5254
2 32787 097.7719 086.0757 0015921 062.4114 050.0011 14.84927557256549
AAUSAT2
1 32788U 08021F 13024.15506792 .00001340 00000-0 16177-3 0 5162
2 32788 097.7730 086.8975 0015346 061.0730 351.6965 14.85335459256625
DO-64
1 32789U 08021G 13024.75909772 .00001659 00000-0 18862-3 0 5395
2 32789 097.7872 090.4807 0014862 054.1116 093.6470 14.87498802256797
CO-66
1 32791U 08021J 13024.18925590 .00000935 00000-0 11795-3 0 5137
2 32791 097.7726 085.9450 0016321 061.5627 332.0162 14.84175632256510
RS-30
1 32953U 08025A 13024.79264925 .00000010 00000-0 00000 0 0 5324
2 32953 082.5024 157.3487 0018979 182.5711 177.5276 12.43031002212094
METEOR-M
1 35865U 09049A 13024.67289724 -.00000025 00000-0 81250-5 0 1636
2 35865 098.6243 080.4830 0002966 116.2422 243.9057 14.21878952174071
RS-38
1 35869U 09049E 13024.65977474 .00000025 00000-0 30528-4 0 1274
2 35869 098.6192 080.4226 0005055 122.3381 237.8280 14.22110401174092
JUGNU
1 37839U 11058B 13024.49072234 .00000620 00000-0 19019-3 0 3193
2 37839 019.9599 097.4791 0019354 138.6367 221.5465 14.12122672 66563
SRMSAT
1 37841U 11058D 13024.56406746 .00000264 00000-0 00000 0 0 3182
2 37841 019.9703 106.2594 0012093 099.6759 260.5086 14.10196386 66470
RAX-2
1 37853U 11061D 13024.84429851 .00002802 00000-0 22268-3 0 4075
2 37853 101.7117 172.2666 0239117 077.9371 284.8486 14.82255592 67201
AUBIESAT
1 37854U 11061E 13023.98645033 .00003447 00000-0 26662-3 0 4058
2 37854 101.7143 171.5988 0239302 079.3315 283.4716 14.82844225 67084
HRBE
1 37855U 11061F 13023.42191891 .00003589 00000-0 27797-3 0 4019
2 37855 101.7151 170.6344 0240465 081.2239 281.6099 14.82575447 66999
RS-39
1 38051U 11062C 13024.89266648 .00007808 00000-0 28654-3 0 1078
2 38051 051.6355 180.0108 0013497 110.6620 052.5126 15.28813076 55835
E-STAR
1 38079U 12006C 13024.76456117 .00024687 00000-0 54118-3 0 8339
2 38079 069.4796 162.7828 0670334 324.3915 031.4130 14.32879772 49111
GOLIAT
1 38085U 12006J 13024.52398744 .00024944 00000-0 54970-3 0 7837
2 38085 069.4872 164.5816 0677062 325.3776 030.4941 14.31339222 49042
HORYU-2
1 38340U 12025D 13024.89365048 .00000891 00000-0 15490-3 0 3401
2 38340 098.1990 331.4782 0012646 352.3591 007.7425 14.70574038 37050
RS-40
1 38736U 12041D 13023.66979092 .00000010 00000-0 00000 0 0 1691
2 38736 082.4755 245.2416 0018104 286.0526 073.8561 12.42650080 22290
PROITERES
1 38756U 12047B 13024.75868978 .00000496 00000-0 83361-4 0 4440
2 38756 098.2682 099.0961 0012151 198.7500 161.3247 14.74058235 20263
AENEAS
1 38760U 0 13010.30862094 .00004933 00000-0 45118-3 0 00386
2 38760 064.6736 037.6222 0216021 256.7016 100.9927 14.80037176005582
CSSWE-D
1 38761U 0 13010.31251606 .00004126 00000-0 38000-3 0 00352
2 38761 064.6743 037.6425 0217594 256.6983 100.9785 14.79845475005606
CXBN-E
1 38762U 0 13010.30523402 .00005383 00000-0 48699-3 0 00360
2 38762 064.6804 037.6257 0218357 256.1531 101.5196 14.79997447005677
OBJECT F
1 38763U 0 13010.30916126 .00003917 00000-0 36085-3 0 00356
2 38763 064.6735 037.6208 0218061 256.7365 100.9342 14.79862223005613
CINEMA-G
1 38764U 0 13010.30690144 .00004197 00000-0 38547-3 0 00341
2 38764 064.6741 037.6060 0217613 256.7942 100.8813 14.79914111005571
CP5
1 38765U 0 13010.36660122 .00005184 00000-0 47138-3 0 00366
2 38765 064.6738 037.3618 0216618 256.5143 101.1776 14.80096794005582
RAIKO
1 38852U 98067CN 13024.24147846 .00031660 00000-0 39553-3 0 1202
2 38852 051.6542 100.2883 0014084 181.6626 178.4064 15.59439687 17308
FITSAT 1
1 38853U 98067CP 13024.63397149 .00038589 00000-0 45113-3 0 1182
2 38853 051.6559 097.6688 0011226 200.6267 159.4274 15.61122622 17423
TechEdSat
1 38854U 98067CQ 13024.69991596 .00068161 00000-0 67211-3 0 1301
2 38854 051.6429 095.8465 0009246 208.0290 152.0204 15.65250215 17459
F 1
1 38855U 98067CR 13024.65073994 .00064350 00000-0 64701-3 0 1353
2 38855 051.6444 096.2750 0010662 205.2056 154.8321 15.64766439 17338
WeWish
1 38856U 98067CS 13024.63312373 .00165077 00000-0 10570-2 0 1542
2 38856 051.6412 093.1184 0003763 212.7879 147.2814 15.75262483 17370
